Norfolk, NE

7:35 AM CDT on March 25, 2017 (GMT -0500)
Stefan Memorial

Weather History for KOFK - September, 2013

Change the Weather History Date:

Monday, September 9, 2013

  Actual Average Record
Temperature  
Mean Temperature 84 °F 67 °F  
Max Temperature 97 °F 79 °F 100 °F (1931)
Min Temperature 70 °F 54 °F 32 °F (1943)
Degree Days  
Heating Degree Days 0 2  
Month to date heating degree days 0 15  
Since 1 July heating degree days 16 31  
Cooling Degree Days 19 4  
Month to date cooling degree days 99 45  
Year to date cooling degree days 923 861  
Growing Degree Days 34 (Base 50)    
Moisture  
Dew Point 61 °F    
Average Humidity 49    
Maximum Humidity 68    
Minimum Humidity 30    
Precipitation  
Precipitation 0.00 in 0.09 in 1.17 in (1897)
Month to date precipitation 0.11 0.83  
Year to date precipitation 18.52 21.36  
Snow  
Snow 0.00 in 0.00 in - ()
Month to date snowfall 0.0 0.0  
Since 1 July snowfall 0.0 0.0  
Snow Depth 0.00 in    
Sea Level Pressure  
Sea Level Pressure 29.74 in    
Wind  
Wind Speed 11 mph (SSW)    
Max Wind Speed 23 mph    
Max Gust Speed 30 mph    
Visibility 10 miles    
Events      
T = Trace of Precipitation, MM = Missing Value Source: NWS Daily Summary

Daily Weather History Graph

Daily Weather History Graph

Search for Another Location

Airport or City:

Trip Planner

Search our weather history database for the weather conditions in past years. The results will help you decide how hot, cold, wet, or windy it might be!

Date:

Astronomy

Sep. 09, 2013 Rise Set
Actual Time 7:03 AM CDT 7:49 PM CDT
Civil Twilight 6:35 AM CDT 8:17 PM CDT
Nautical Twilight 6:02 AM CDT 8:50 PM CDT
Astronomical Twilight 5:27 AM CDT 9:25 PM CDT
Moon 11:32 AM CDT (9/9) 10:01 PM CDT (9/9)
Length of Visible Light 13h 41m
Length of Day
12h 45m
Waxing Crescent, 19% of the Moon is Illuminated
Sep 9
Waxing Crescent
Sep 12
First Quarter
Sep 19
Full
Sep 26
Last Quarter
Oct 4
New

Hourly Weather History & Observations

Time (CDT) Temp. Heat Index Dew Point Humidity Pressure Visibility Wind Dir Wind Speed Gust Speed Precip Events Conditions
12:56 AM 79.0 °F - 66.9 °F 66% 29.73 in 10.0 mi South 11.5 mph - N/A   Clear
1:56 AM 78.1 °F - 64.9 °F 64% 29.73 in 10.0 mi South 12.7 mph - N/A   Clear
2:56 AM 75.0 °F - 63.0 °F 66% 29.73 in 10.0 mi SSW 10.4 mph - N/A   Clear
3:56 AM 75.0 °F - 62.1 °F 64% 29.73 in 10.0 mi SSW 10.4 mph - N/A   Clear
4:56 AM 73.9 °F - 62.1 °F 66% 29.72 in 10.0 mi South 10.4 mph - N/A   Clear
5:56 AM 73.9 °F - 61.0 °F 64% 29.72 in 10.0 mi SSW 13.8 mph - N/A   Clear
6:56 AM 73.0 °F - 61.0 °F 66% 29.73 in 10.0 mi SSW 10.4 mph - N/A   Clear
7:56 AM 71.1 °F - 61.0 °F 70% 29.75 in 10.0 mi SSW 10.4 mph - N/A   Clear
8:56 AM 75.0 °F - 61.0 °F 62% 29.75 in 10.0 mi South 13.8 mph - N/A   Clear
9:56 AM 81.0 °F 81.7 °F 61.0 °F 50% 29.74 in 10.0 mi SSW 12.7 mph 23.0 mph N/A   Clear
10:56 AM 84.9 °F 85.0 °F 61.0 °F 44% 29.74 in 10.0 mi SW 11.5 mph 18.4 mph N/A   Clear
11:56 AM 90.0 °F 90.3 °F 62.1 °F 39% 29.73 in 10.0 mi SW 15.0 mph - N/A   Clear
12:56 PM 93.0 °F 93.8 °F 62.1 °F 36% 29.73 in 10.0 mi SW 15.0 mph - N/A   Clear
1:56 PM 93.9 °F 95.6 °F 64.0 °F 37% 29.71 in 10.0 mi South 15.0 mph - N/A   Clear
2:56 PM 96.1 °F 97.3 °F 63.0 °F 33% 29.71 in 10.0 mi SSW 17.3 mph 25.3 mph N/A   Clear
3:56 PM 96.1 °F 96.9 °F 62.1 °F 32% 29.70 in 10.0 mi SSW 19.6 mph 26.5 mph N/A   Clear
4:56 PM 96.1 °F 96.0 °F 60.1 °F 30% 29.70 in 10.0 mi SW 17.3 mph - N/A   Clear
5:56 PM 95.0 °F 94.4 °F 59.0 °F 30% 29.71 in 10.0 mi SSW 12.7 mph - N/A   Clear
6:56 PM 90.0 °F 89.1 °F 59.0 °F 35% 29.72 in 10.0 mi South 11.5 mph - N/A   Clear
7:56 PM 86.0 °F 84.9 °F 57.0 °F 37% 29.73 in 10.0 mi South 12.7 mph - N/A   Clear
8:56 PM 82.9 °F 82.6 °F 57.9 °F 42% 29.77 in 10.0 mi South 10.4 mph - N/A   Clear
9:56 PM 75.9 °F - 59.0 °F 56% 29.79 in 10.0 mi WNW 4.6 mph - N/A   Clear
10:56 PM 78.1 °F - 57.0 °F 48% 29.81 in 10.0 mi Calm Calm - N/A   Clear
11:56 PM 71.1 °F - 59.0 °F 66% 29.83 in 10.0 mi Variable 3.5 mph - N/A   Clear